date,time,water_lv
2016-12-01,00:00:00,6.35
2016-12-01,00:10:00,6.35
2016-12-01,00:20:00,6.35
2016-12-01,00:30:00,6.35
2016-12-01,00:40:00,6.35
2016-12-01,00:50:00,6.34
2016-12-01,01:00:00,6.35
2016-12-01,01:10:00,6.35
2016-12-01,01:20:00,6.34
2016-12-01,01:30:00,6.34
2016-12-01,01:40:00,6.34
2016-12-01,01:50:00,6.35
2016-12-01,02:00:00,6.34
2016-12-01,02:10:00,6.33
2016-12-01,02:20:00,6.34
2016-12-01,02:30:00,6.33
2016-12-01,02:40:00,6.34
2016-12-01,02:50:00,6.34
2016-12-01,03:00:00,6.34
2016-12-01,03:10:00,6.34
2016-12-01,03:20:00,6.34
2016-12-01,03:30:00,6.32
2016-12-01,03:40:00,6.33
2016-12-01,03:50:00,6.33
2016-12-01,04:00:00,6.33
2016-12-01,04:10:00,6.33
2016-12-01,04:20:00,6.33
2016-12-01,04:30:00,6.33
2016-12-01,04:40:00,6.33
2016-12-01,04:50:00,6.33
2016-12-01,05:00:00,6.33
2016-12-01,05:10:00,6.33
2016-12-01,05:20:00,6.33
2016-12-01,05:30:00,6.33
2016-12-01,05:40:00,6.33
2016-12-01,05:50:00,6.32
2016-12-01,06:00:00,6.33
2016-12-01,06:10:00,6.32
2016-12-01,06:20:00,6.32
2016-12-01,06:30:00,6.32
2016-12-01,06:40:00,6.32
2016-12-01,06:50:00,6.32
2016-12-01,07:00:00,6.32
2016-12-01,07:10:00,6.32
2016-12-01,07:20:00,6.32
2016-12-01,07:30:00,6.32
2016-12-01,07:40:00,6.32
2016-12-01,07:50:00,6.32
2016-12-01,08:00:00,6.32
2016-12-01,08:10:00,6.32
2016-12-01,08:20:00,6.32
2016-12-01,08:30:00,6.32
2016-12-01,08:40:00,6.31
2016-12-01,08:50:00,6.32
2016-12-01,09:00:00,6.31
2016-12-01,09:10:00,6.31
2016-12-01,09:20:00,6.32
2016-12-01,09:30:00,6.32
2016-12-01,09:40:00,6.31
2016-12-01,09:50:00,6.31
2016-12-01,10:00:00,6.31
2016-12-01,10:10:00,6.31
2016-12-01,10:20:00,6.31
2016-12-01,10:30:00,6.31
2016-12-01,10:40:00,6.31
2016-12-01,10:50:00,6.31
2016-12-01,11:00:00,6.31
2016-12-01,11:10:00,6.31
2016-12-01,11:20:00,6.31
2016-12-01,11:30:00,6.3
2016-12-01,11:40:00,6.31
2016-12-01,11:50:00,6.31
2016-12-01,12:00:00,6.3
2016-12-01,12:10:00,6.3
2016-12-01,12:20:00,6.3
2016-12-01,12:30:00,6.3
2016-12-01,12:40:00,6.3
2016-12-01,12:50:00,6.3
2016-12-01,13:00:00,6.3
2016-12-01,13:10:00,6.29
2016-12-01,13:20:00,6.3
2016-12-01,13:30:00,6.3
2016-12-01,13:40:00,6.3
2016-12-01,13:50:00,6.3
2016-12-01,14:00:00,6.29
2016-12-01,14:10:00,6.3
2016-12-01,14:20:00,6.3
2016-12-01,14:30:00,6.29
2016-12-01,14:40:00,6.29
2016-12-01,14:50:00,6.3
2016-12-01,15:00:00,6.29
2016-12-01,15:10:00,6.29
2016-12-01,15:20:00,6.3
2016-12-01,15:30:00,6.29
2016-12-01,15:40:00,6.3
2016-12-01,15:50:00,6.29
2016-12-01,16:00:00,6.29
2016-12-01,16:10:00,6.29
2016-12-01,16:20:00,6.29
2016-12-01,16:30:00,6.29
2016-12-01,16:40:00,6.29
2016-12-01,16:50:00,6.3
2016-12-01,17:00:00,6.29
2016-12-01,17:10:00,6.29
2016-12-01,17:20:00,6.29
2016-12-01,17:30:00,6.29
2016-12-01,17:40:00,6.29
2016-12-01,17:50:00,6.29
2016-12-01,18:00:00,6.29
2016-12-01,18:10:00,6.29
2016-12-01,18:20:00,6.29
2016-12-01,18:30:00,6.29
2016-12-01,18:40:00,6.29
2016-12-01,18:50:00,6.29
2016-12-01,19:00:00,6.29
2016-12-01,19:10:00,6.29
2016-12-01,19:20:00,6.29
2016-12-01,19:30:00,6.28
2016-12-01,19:40:00,6.28
2016-12-01,19:50:00,6.29
2016-12-01,20:00:00,6.28
2016-12-01,20:10:00,6.28
2016-12-01,20:20:00,6.29
2016-12-01,20:30:00,6.28
2016-12-01,20:40:00,6.28
2016-12-01,20:50:00,6.28
2016-12-01,21:00:00,6.28
2016-12-01,21:10:00,6.28
2016-12-01,21:20:00,6.28
2016-12-01,21:30:00,6.28
2016-12-01,21:40:00,6.28
2016-12-01,21:50:00,6.28
2016-12-01,22:00:00,6.28
2016-12-01,22:10:00,6.28
2016-12-01,22:20:00,6.28
2016-12-01,22:30:00,6.28
2016-12-01,22:40:00,6.28
2016-12-01,22:50:00,6.28
2016-12-01,23:00:00,6.28
2016-12-01,23:10:00,6.28
2016-12-01,23:20:00,6.28
2016-12-01,23:30:00,6.28
2016-12-01,23:40:00,6.27
2016-12-01,23:50:00,6.29
2016-12-02,00:00:00,6.29
2016-12-02,00:10:00,6.3
2016-12-02,00:20:00,6.28
2016-12-02,00:30:00,6.29
2016-12-02,00:40:00,6.3
2016-12-02,00:50:00,6.29
2016-12-02,01:00:00,6.3
2016-12-02,01:10:00,6.3
2016-12-02,01:20:00,6.32
2016-12-02,01:30:00,6.31
2016-12-02,01:40:00,6.33
2016-12-02,01:50:00,6.32
2016-12-02,02:00:00,6.33
2016-12-02,02:10:00,6.34
2016-12-02,02:20:00,6.33
2016-12-02,02:30:00,6.31
2016-12-02,02:40:00,6.34
2016-12-02,02:50:00,6.36
2016-12-02,03:00:00,6.35
2016-12-02,03:10:00,6.36
2016-12-02,03:20:00,6.37
2016-12-02,03:30:00,6.38
2016-12-02,03:40:00,6.39
2016-12-02,03:50:00,6.4
2016-12-02,04:00:00,6.41
2016-12-02,04:10:00,6.42
2016-12-02,04:20:00,6.43
2016-12-02,04:30:00,6.43
2016-12-02,04:40:00,6.45
2016-12-02,04:50:00,6.45
2016-12-02,05:00:00,6.46
2016-12-02,05:10:00,6.48
2016-12-02,05:20:00,6.49
2016-12-02,05:30:00,6.49
2016-12-02,05:40:00,6.51
2016-12-02,05:50:00,6.52
2016-12-02,06:00:00,6.53
2016-12-02,06:10:00,6.55
2016-12-02,06:20:00,6.55
2016-12-02,06:30:00,6.57
2016-12-02,06:40:00,6.58
2016-12-02,06:50:00,6.6
2016-12-02,07:00:00,6.61
2016-12-02,07:10:00,6.63
2016-12-02,07:20:00,6.65
2016-12-02,07:30:00,6.67
2016-12-02,07:40:00,6.68
2016-12-02,07:50:00,6.7
2016-12-02,08:00:00,6.72
2016-12-02,08:10:00,6.75
2016-12-02,08:20:00,6.75
2016-12-02,08:30:00,6.79
2016-12-02,08:40:00,6.81
2016-12-02,08:50:00,6.84
2016-12-02,09:00:00,6.88
2016-12-02,09:10:00,6.9
2016-12-02,09:20:00,6.92
2016-12-02,09:30:00,6.95
2016-12-02,09:40:00,7
2016-12-02,09:50:00,7.02
2016-12-02,10:00:00,7.06
2016-12-02,10:10:00,7.09
2016-12-02,10:20:00,7.12
2016-12-02,10:30:00,7.16
2016-12-02,10:40:00,7.19
2016-12-02,10:50:00,7.23
2016-12-02,11:00:00,7.27
2016-12-02,11:10:00,7.3
2016-12-02,11:20:00,7.33
2016-12-02,11:30:00,7.37
2016-12-02,11:40:00,7.39
2016-12-02,11:50:00,7.44
2016-12-02,12:00:00,7.5
2016-12-02,12:10:00,7.52
2016-12-02,12:20:00,7.57
2016-12-02,12:30:00,7.6
2016-12-02,12:40:00,7.65
2016-12-02,12:50:00,7.68
2016-12-02,13:00:00,7.71
2016-12-02,13:10:00,7.76
2016-12-02,13:20:00,7.8
2016-12-02,13:30:00,7.84
2016-12-02,13:40:00,7.88
2016-12-02,13:50:00,7.91
2016-12-02,14:00:00,7.96
2016-12-02,14:10:00,7.99
2016-12-02,14:20:00,8.03
2016-12-02,14:30:00,8.06
2016-12-02,14:40:00,8.1
2016-12-02,14:50:00,8.14
2016-12-02,15:00:00,8.19
2016-12-02,15:10:00,8.22
2016-12-02,15:20:00,8.26
2016-12-02,15:30:00,8.29
2016-12-02,15:40:00,8.32
2016-12-02,15:50:00,8.37
2016-12-02,16:00:00,8.4
2016-12-02,16:10:00,8.44
2016-12-02,16:20:00,8.47
2016-12-02,16:30:00,8.5
2016-12-02,16:40:00,8.53
2016-12-02,16:50:00,8.56
2016-12-02,17:00:00,8.6
2016-12-02,17:10:00,8.63
2016-12-02,17:20:00,8.66
2016-12-02,17:30:00,8.69
2016-12-02,17:40:00,8.72
2016-12-02,17:50:00,8.75
2016-12-02,18:00:00,8.78
2016-12-02,18:10:00,8.82
2016-12-02,18:20:00,8.85
2016-12-02,18:30:00,8.88
2016-12-02,18:40:00,8.9
2016-12-02,18:50:00,8.93
2016-12-02,19:00:00,8.96
2016-12-02,19:10:00,8.99
2016-12-02,19:20:00,9.02
2016-12-02,19:30:00,9.03
2016-12-02,19:40:00,9.08
2016-12-02,19:50:00,9.1
2016-12-02,20:00:00,9.13
2016-12-02,20:10:00,9.16
2016-12-02,20:20:00,9.2
2016-12-02,20:30:00,9.22
2016-12-02,20:40:00,9.24
2016-12-02,20:50:00,9.27
2016-12-02,21:00:00,9.3
2016-12-02,21:10:00,9.32
2016-12-02,21:20:00,9.35
2016-12-02,21:30:00,9.38
2016-12-02,21:40:00,9.41
2016-12-02,21:50:00,9.42
2016-12-02,22:00:00,9.46
2016-12-02,22:10:00,9.49
2016-12-02,22:20:00,9.51
2016-12-02,22:30:00,9.53
2016-12-02,22:40:00,9.56
2016-12-02,22:50:00,9.58
2016-12-02,23:00:00,9.61
2016-12-02,23:10:00,9.63
2016-12-02,23:20:00,9.66
2016-12-02,23:30:00,9.69
2016-12-02,23:40:00,9.71
2016-12-02,23:50:00,9.74
2016-12-03,00:00:00,9.75
2016-12-03,00:10:00,9.78
2016-12-03,00:20:00,9.81
2016-12-03,00:30:00,9.83
2016-12-03,00:40:00,9.85
2016-12-03,00:50:00,9.88
2016-12-03,01:00:00,9.89
2016-12-03,01:10:00,9.9
2016-12-03,01:20:00,9.93
2016-12-03,01:30:00,9.95
2016-12-03,01:40:00,9.97
2016-12-03,01:50:00,10
2016-12-03,02:00:00,10.01
2016-12-03,02:10:00,10.04
2016-12-03,02:20:00,10.05
2016-12-03,02:30:00,10.07
2016-12-03,02:40:00,10.09
2016-12-03,02:50:00,10.11
2016-12-03,03:00:00,10.12
2016-12-03,03:10:00,10.15
2016-12-03,03:20:00,10.17
2016-12-03,03:30:00,10.18
2016-12-03,03:40:00,10.2
2016-12-03,03:50:00,10.22
2016-12-03,04:00:00,10.23
2016-12-03,04:10:00,10.25
2016-12-03,04:20:00,10.27
2016-12-03,04:30:00,10.29
2016-12-03,04:40:00,10.3
2016-12-03,04:50:00,10.32
2016-12-03,05:00:00,10.34
2016-12-03,05:10:00,10.36
2016-12-03,05:20:00,10.36
2016-12-03,05:30:00,10.38
2016-12-03,05:40:00,10.4
2016-12-03,05:50:00,10.41
2016-12-03,06:00:00,10.44
2016-12-03,06:10:00,10.44
2016-12-03,06:20:00,10.47
2016-12-03,06:30:00,10.47
2016-12-03,06:40:00,10.49
2016-12-03,06:50:00,10.52
2016-12-03,07:00:00,10.52
2016-12-03,07:10:00,10.54
2016-12-03,07:20:00,10.57
2016-12-03,07:30:00,10.58
2016-12-03,07:40:00,10.59
2016-12-03,07:50:00,10.6
2016-12-03,08:00:00,10.62
2016-12-03,08:10:00,10.64
2016-12-03,08:20:00,10.65
2016-12-03,08:30:00,10.66
2016-12-03,08:40:00,10.68
2016-12-03,08:50:00,10.7
2016-12-03,09:00:00,10.71
2016-12-03,09:10:00,10.73
2016-12-03,09:20:00,10.74
2016-12-03,09:30:00,10.75
2016-12-03,09:40:00,10.77
2016-12-03,09:50:00,10.79
2016-12-03,10:00:00,10.79
2016-12-03,10:10:00,10.8
2016-12-03,10:20:00,10.81
2016-12-03,10:30:00,10.84
2016-12-03,10:40:00,10.85
2016-12-03,10:50:00,10.86
2016-12-03,11:00:00,10.88
2016-12-03,11:10:00,10.9
2016-12-03,11:20:00,10.91
2016-12-03,11:30:00,10.92
2016-12-03,11:40:00,10.94
2016-12-03,11:50:00,10.96
2016-12-03,12:00:00,10.96
2016-12-03,12:10:00,10.98
2016-12-03,12:20:00,11
2016-12-03,12:30:00,11
2016-12-03,12:40:00,11.02
2016-12-03,12:50:00,11.03
2016-12-03,13:00:00,11.05
2016-12-03,13:10:00,11.05
2016-12-03,13:20:00,11.07
2016-12-03,13:30:00,11.07
2016-12-03,13:40:00,11.1
2016-12-03,13:50:00,11.09
2016-12-03,14:00:00,11.12
2016-12-03,14:10:00,11.14
2016-12-03,14:20:00,11.14
2016-12-03,14:30:00,11.15
2016-12-03,14:40:00,11.16
2016-12-03,14:50:00,11.18
2016-12-03,15:00:00,11.18
2016-12-03,15:10:00,11.2
2016-12-03,15:20:00,11.2
2016-12-03,15:30:00,11.21
2016-12-03,15:40:00,11.22
2016-12-03,15:50:00,11.23
2016-12-03,16:00:00,11.25
2016-12-03,16:10:00,11.26
2016-12-03,16:20:00,11.26
2016-12-03,16:30:00,11.27
2016-12-03,16:40:00,11.28
2016-12-03,16:50:00,11.29
2016-12-03,17:00:00,11.3
2016-12-03,17:10:00,11.31
2016-12-03,17:20:00,11.32
2016-12-03,17:30:00,11.33
2016-12-03,17:40:00,11.33
2016-12-03,17:50:00,11.34
2016-12-03,18:00:00,11.35
2016-12-03,18:10:00,11.36
2016-12-03,18:20:00,11.37
2016-12-03,18:30:00,11.38
2016-12-03,18:40:00,11.39
2016-12-03,18:50:00,11.39
2016-12-03,19:00:00,11.4
2016-12-03,19:10:00,11.41
2016-12-03,19:20:00,11.42
2016-12-03,19:30:00,11.43
2016-12-03,19:40:00,11.44
2016-12-03,19:50:00,11.45
2016-12-03,20:00:00,11.46
2016-12-03,20:10:00,11.46
2016-12-03,20:20:00,11.47
2016-12-03,20:30:00,11.48
2016-12-03,20:40:00,11.5
2016-12-03,20:50:00,11.5
2016-12-03,21:00:00,11.5
2016-12-03,21:10:00,11.51
2016-12-03,21:20:00,11.52
2016-12-03,21:30:00,11.53
2016-12-03,21:40:00,11.53
2016-12-03,21:50:00,11.54
2016-12-03,22:00:00,11.55
2016-12-03,22:10:00,11.55
2016-12-03,22:20:00,11.56
2016-12-03,22:30:00,11.57
2016-12-03,22:40:00,11.57
2016-12-03,22:50:00,11.58
2016-12-03,23:00:00,11.59
2016-12-03,23:10:00,11.6
2016-12-03,23:20:00,11.6
2016-12-03,23:30:00,11.61
2016-12-03,23:40:00,11.61
2016-12-03,23:50:00,11.62
2016-12-04,00:00:00,11.63
2016-12-04,00:10:00,11.63
2016-12-04,00:20:00,11.64
2016-12-04,00:30:00,11.65
2016-12-04,00:40:00,11.66
2016-12-04,00:50:00,11.66
2016-12-04,01:00:00,11.67
2016-12-04,01:10:00,11.68
2016-12-04,01:20:00,11.69
2016-12-04,01:30:00,11.69
2016-12-04,01:40:00,11.7
2016-12-04,01:50:00,11.71
2016-12-04,02:00:00,11.72
2016-12-04,02:10:00,11.72
2016-12-04,02:20:00,11.73
2016-12-04,02:30:00,11.75
2016-12-04,02:40:00,11.74
2016-12-04,02:50:00,11.76
2016-12-04,03:00:00,11.77
2016-12-04,03:10:00,11.78
2016-12-04,03:20:00,11.79
2016-12-04,03:30:00,11.8
2016-12-04,03:40:00,11.81
2016-12-04,03:50:00,11.82
2016-12-04,04:00:00,11.82
2016-12-04,04:10:00,11.84
2016-12-04,04:20:00,11.84
2016-12-04,04:30:00,11.84
2016-12-04,04:40:00,11.86
2016-12-04,04:50:00,11.87
2016-12-04,05:00:00,11.87
2016-12-04,05:10:00,11.88
2016-12-04,05:20:00,11.89
2016-12-04,05:30:00,11.9
2016-12-04,05:40:00,11.9
2016-12-04,05:50:00,11.91
2016-12-04,06:00:00,11.92
2016-12-04,06:10:00,11.94
2016-12-04,06:20:00,11.94
2016-12-04,06:30:00,11.95
2016-12-04,06:40:00,11.95
2016-12-04,06:50:00,11.97
2016-12-04,07:00:00,11.98
2016-12-04,07:10:00,11.99
2016-12-04,07:20:00,12
2016-12-04,07:30:00,12.01
2016-12-04,07:40:00,12.01
2016-12-04,07:50:00,12.03
2016-12-04,08:00:00,12.03
2016-12-04,08:10:00,12.04
2016-12-04,08:20:00,12.05
2016-12-04,08:30:00,12.06
2016-12-04,08:40:00,12.07
2016-12-04,08:50:00,12.08
2016-12-04,09:00:00,12.09
2016-12-04,09:10:00,12.09
2016-12-04,09:20:00,12.1
2016-12-04,09:30:00,12.12
2016-12-04,09:40:00,12.13
2016-12-04,09:50:00,12.14
2016-12-04,10:00:00,12.15
2016-12-04,10:10:00,12.17
2016-12-04,10:20:00,12.17
2016-12-04,10:30:00,12.19
2016-12-04,10:40:00,12.2
2016-12-04,10:50:00,12.21
2016-12-04,11:00:00,12.23
2016-12-04,11:10:00,12.24
2016-12-04,11:20:00,12.25
2016-12-04,11:30:00,12.25
2016-12-04,11:40:00,12.27
2016-12-04,11:50:00,12.27
2016-12-04,12:00:00,12.27
2016-12-04,12:10:00,12.29
2016-12-04,12:20:00,12.3
2016-12-04,12:30:00,12.31
2016-12-04,12:40:00,12.32
2016-12-04,12:50:00,12.33
2016-12-04,13:00:00,12.35
2016-12-04,13:10:00,12.36
2016-12-04,13:20:00,12.36
2016-12-04,13:30:00,12.37
2016-12-04,13:40:00,12.39
2016-12-04,13:50:00,12.39
2016-12-04,14:00:00,12.41
2016-12-04,14:10:00,12.41
2016-12-04,14:20:00,12.43
2016-12-04,14:30:00,12.43
2016-12-04,14:40:00,12.45
2016-12-04,14:50:00,12.46
2016-12-04,15:00:00,12.46
2016-12-04,15:10:00,12.47
2016-12-04,15:20:00,12.49
2016-12-04,15:30:00,12.5
2016-12-04,15:40:00,12.51
2016-12-04,15:50:00,12.52
2016-12-04,16:00:00,12.53
2016-12-04,16:10:00,12.54
2016-12-04,16:20:00,12.55
2016-12-04,16:30:00,12.56
2016-12-04,16:40:00,12.58
2016-12-04,16:50:00,12.59
2016-12-04,17:00:00,12.59
2016-12-04,17:10:00,12.6
2016-12-04,17:20:00,12.62
2016-12-04,17:30:00,12.63
2016-12-04,17:40:00,12.65
2016-12-04,17:50:00,12.66
2016-12-04,18:00:00,12.67
2016-12-04,18:10:00,12.68
2016-12-04,18:20:00,12.69
2016-12-04,18:30:00,12.7
2016-12-04,18:40:00,12.72
2016-12-04,18:50:00,12.72
2016-12-04,19:00:00,12.74
2016-12-04,19:10:00,12.75
2016-12-04,19:20:00,12.76
2016-12-04,19:30:00,12.77
2016-12-04,19:40:00,12.78
2016-12-04,19:50:00,12.8
2016-12-04,20:00:00,12.81
2016-12-04,20:10:00,12.84
2016-12-04,20:20:00,12.84
2016-12-04,20:30:00,12.86
2016-12-04,20:40:00,12.88
2016-12-04,20:50:00,12.9
2016-12-04,21:00:00,12.91
2016-12-04,21:10:00,12.93
2016-12-04,21:20:00,12.94
2016-12-04,21:30:00,12.95
2016-12-04,21:40:00,12.96
2016-12-04,21:50:00,12.98
2016-12-04,22:00:00,13
2016-12-04,22:10:00,13.01
2016-12-04,22:20:00,13.02
2016-12-04,22:30:00,13.05
2016-12-04,22:40:00,13.05
2016-12-04,22:50:00,13.08
2016-12-04,23:00:00,13.1
2016-12-04,23:10:00,13.11
2016-12-04,23:20:00,13.11
2016-12-04,23:30:00,13.14
2016-12-04,23:40:00,13.15
2016-12-04,23:50:00,13.18
2016-12-05,00:00:00,13.18
2016-12-05,00:10:00,13.21
2016-12-05,00:20:00,13.21
2016-12-05,00:30:00,13.24
2016-12-05,00:40:00,13.24
2016-12-05,00:50:00,13.24
2016-12-05,01:00:00,13.28
2016-12-05,01:10:00,13.3
2016-12-05,01:20:00,13.32
2016-12-05,01:30:00,13.32
2016-12-05,01:40:00,13.32
2016-12-05,01:50:00,13.35
2016-12-05,02:00:00,13.37
2016-12-05,02:10:00,13.4
2016-12-05,02:20:00,13.4
2016-12-05,02:30:00,13.41
2016-12-05,02:40:00,13.43
2016-12-05,02:50:00,13.44
2016-12-05,03:00:00,13.46
2016-12-05,03:10:00,13.46
2016-12-05,03:20:00,13.48
2016-12-05,03:30:00,13.5
2016-12-05,03:40:00,13.52
2016-12-05,03:50:00,13.52
2016-12-05,04:00:00,13.55
2016-12-05,04:10:00,13.54
2016-12-05,04:20:00,13.56
2016-12-05,04:30:00,13.58
2016-12-05,04:40:00,13.58
2016-12-05,04:50:00,13.59
2016-12-05,05:00:00,13.6
2016-12-05,05:10:00,13.62
2016-12-05,05:20:00,13.65
2016-12-05,05:30:00,13.64
2016-12-05,05:40:00,13.67
2016-12-05,05:50:00,13.66
2016-12-05,06:00:00,13.67
2016-12-05,06:10:00,13.69
2016-12-05,06:20:00,13.72
2016-12-05,06:30:00,13.72
2016-12-05,06:40:00,13.72
2016-12-05,06:50:00,13.73
2016-12-05,07:00:00,13.75
2016-12-05,07:10:00,13.75
2016-12-05,07:20:00,13.77
2016-12-05,07:30:00,13.77
2016-12-05,07:40:00,13.79
2016-12-05,07:50:00,13.79
2016-12-05,08:00:00,13.79
2016-12-05,08:10:00,13.82
2016-12-05,08:20:00,13.82
2016-12-05,08:30:00,13.84
2016-12-05,08:40:00,13.83
2016-12-05,08:50:00,13.84
2016-12-05,09:00:00,13.85
2016-12-05,09:10:00,13.85
2016-12-05,09:20:00,13.87
2016-12-05,09:30:00,13.87
2016-12-05,09:40:00,13.87
2016-12-05,09:50:00,13.89
2016-12-05,10:00:00,13.89
2016-12-05,10:10:00,13.91
2016-12-05,10:20:00,13.91
2016-12-05,10:30:00,13.92
2016-12-05,10:40:00,13.94
2016-12-05,10:50:00,13.93
2016-12-05,11:00:00,13.94
2016-12-05,11:10:00,13.95
2016-12-05,11:20:00,13.95
2016-12-05,11:30:00,13.95
2016-12-05,11:40:00,13.95
2016-12-05,11:50:00,13.97
2016-12-05,12:00:00,13.97
2016-12-05,12:10:00,13.96
2016-12-05,12:20:00,13.98
2016-12-05,12:30:00,13.99
2016-12-05,12:40:00,13.99
2016-12-05,12:50:00,14
2016-12-05,13:00:00,14.03
2016-12-05,13:10:00,13.99
2016-12-05,13:20:00,14.01
2016-12-05,13:30:00,14
2016-12-05,13:40:00,14.01
2016-12-05,13:50:00,14.01
2016-12-05,14:00:00,14.01
2016-12-05,14:10:00,14.04
2016-12-05,14:20:00,14.02
2016-12-05,14:30:00,14.04
2016-12-05,14:40:00,14.04
2016-12-05,14:50:00,14.04
2016-12-05,15:00:00,14.04
2016-12-05,15:10:00,14.04
2016-12-05,15:20:00,14.05
2016-12-05,15:30:00,14.06
2016-12-05,15:40:00,14.06
2016-12-05,15:50:00,14.06
2016-12-05,16:00:00,14.06
2016-12-05,16:10:00,14.08
2016-12-05,16:20:00,14.07
2016-12-05,16:30:00,14.06
2016-12-05,16:40:00,14.06
2016-12-05,16:50:00,14.07
2016-12-05,17:00:00,14.07
2016-12-05,17:10:00,14.09
2016-12-05,17:20:00,14.09
2016-12-05,17:30:00,14.08
2016-12-05,17:40:00,14.07
2016-12-05,17:50:00,14.09
2016-12-05,18:00:00,14.08
2016-12-05,18:10:00,14.1
2016-12-05,18:20:00,14.1
2016-12-05,18:30:00,14.09
2016-12-05,18:40:00,14.1
2016-12-05,18:50:00,14.09
2016-12-05,19:00:00,14.1
2016-12-05,19:10:00,14.09
2016-12-05,19:20:00,14.09
2016-12-05,19:30:00,14.09
2016-12-05,19:40:00,14.09
2016-12-05,19:50:00,14.1
2016-12-05,20:00:00,14.1
2016-12-05,20:10:00,14.1
2016-12-05,20:20:00,14.11
2016-12-05,20:30:00,14.1
2016-12-05,20:40:00,14.11
2016-12-05,20:50:00,14.1
2016-12-05,21:00:00,14.1
2016-12-05,21:10:00,14.09
2016-12-05,21:20:00,14.1
2016-12-05,21:30:00,14.1
2016-12-05,21:40:00,14.1
2016-12-05,21:50:00,14.1
2016-12-05,22:00:00,14.1
2016-12-05,22:10:00,14.1
2016-12-05,22:20:00,14.1
2016-12-05,22:30:00,14.1
2016-12-05,22:40:00,14.09
2016-12-05,22:50:00,14.1
2016-12-05,23:00:00,14.11
2016-12-05,23:10:00,14.1
2016-12-05,23:20:00,14.1
2016-12-05,23:30:00,14.08
2016-12-05,23:40:00,14.09
2016-12-05,23:50:00,14.09
2016-12-06,00:00:00,14.09
2016-12-06,00:10:00,14.1
2016-12-06,00:20:00,14.11
2016-12-06,00:30:00,14.1
2016-12-06,00:40:00,14.09
2016-12-06,00:50:00,14.09
2016-12-06,01:00:00,14.08
2016-12-06,01:10:00,14.08
2016-12-06,01:20:00,14.08
2016-12-06,01:30:00,14.09
2016-12-06,01:40:00,14.09
2016-12-06,01:50:00,14.09
2016-12-06,02:00:00,14.08
2016-12-06,02:10:00,14.08
2016-12-06,02:20:00,14.08
2016-12-06,02:30:00,14.07
2016-12-06,02:40:00,14.08
2016-12-06,02:50:00,14.08
2016-12-06,03:00:00,14.07
2016-12-06,03:10:00,14.09
2016-12-06,03:20:00,14.07
2016-12-06,03:30:00,14.07
2016-12-06,03:40:00,14.07
2016-12-06,03:50:00,14.08
2016-12-06,04:00:00,14.08
2016-12-06,04:10:00,14.06
2016-12-06,04:20:00,14.05
2016-12-06,04:30:00,14.06
2016-12-06,04:40:00,14.05
2016-12-06,04:50:00,14.05
2016-12-06,05:00:00,14.07
2016-12-06,05:10:00,14.06
2016-12-06,05:20:00,14.05
2016-12-06,05:30:00,14.05
2016-12-06,05:40:00,14.03
2016-12-06,05:50:00,14.05
2016-12-06,06:00:00,14.04
2016-12-06,06:10:00,14.03
2016-12-06,06:20:00,14.04
2016-12-06,06:30:00,14.02
2016-12-06,06:40:00,14.03
2016-12-06,06:50:00,14.04
2016-12-06,07:00:00,14.02
2016-12-06,07:10:00,14.04
2016-12-06,07:20:00,14.03
2016-12-06,07:30:00,14.01
2016-12-06,07:40:00,14.02
2016-12-06,07:50:00,14.02
2016-12-06,08:00:00,14.02
2016-12-06,08:10:00,14.01
2016-12-06,08:20:00,14.01
2016-12-06,08:30:00,14.01
2016-12-06,08:40:00,14.01
2016-12-06,08:50:00,14.01
2016-12-06,09:00:00,14.01
2016-12-06,09:10:00,14
2016-12-06,09:20:00,14
2016-12-06,09:30:00,13.99
2016-12-06,09:40:00,13.99
2016-12-06,09:50:00,14
2016-12-06,10:00:00,13.98
2016-12-06,10:10:00,13.98
2016-12-06,10:20:00,13.98
2016-12-06,10:30:00,13.97
2016-12-06,10:40:00,13.98
2016-12-06,10:50:00,13.98
2016-12-06,11:00:00,13.98
2016-12-06,11:10:00,13.97
2016-12-06,11:20:00,13.96
2016-12-06,11:30:00,13.97
2016-12-06,11:40:00,13.97
2016-12-06,11:50:00,13.95
2016-12-06,12:00:00,13.96
2016-12-06,12:10:00,13.95
2016-12-06,12:20:00,13.95
2016-12-06,12:30:00,13.95
2016-12-06,12:40:00,13.94
2016-12-06,12:50:00,13.95
2016-12-06,13:00:00,13.93
2016-12-06,13:10:00,13.92
2016-12-06,13:20:00,13.94
2016-12-06,13:30:00,13.94
2016-12-06,13:40:00,13.93
2016-12-06,13:50:00,13.93
2016-12-06,14:00:00,13.93
2016-12-06,14:10:00,13.93
2016-12-06,14:20:00,13.92
2016-12-06,14:30:00,13.92
2016-12-06,14:40:00,13.91
2016-12-06,14:50:00,13.9
2016-12-06,15:00:00,13.9
2016-12-06,15:10:00,13.9
2016-12-06,15:20:00,13.9
2016-12-06,15:30:00,13.89
2016-12-06,15:40:00,13.9
2016-12-06,15:50:00,13.9
2016-12-06,16:00:00,13.89
2016-12-06,16:10:00,13.89
2016-12-06,16:20:00,13.89
2016-12-06,16:30:00,13.89
2016-12-06,16:40:00,13.89
2016-12-06,16:50:00,13.89
2016-12-06,17:00:00,13.88
2016-12-06,17:10:00,13.87
2016-12-06,17:20:00,13.88
2016-12-06,17:30:00,13.87
2016-12-06,17:40:00,13.88
2016-12-06,17:50:00,13.86
2016-12-06,18:00:00,13.86
2016-12-06,18:10:00,13.86
2016-12-06,18:20:00,13.85
2016-12-06,18:30:00,13.86
2016-12-06,18:40:00,13.85
2016-12-06,18:50:00,13.85
2016-12-06,19:00:00,13.84
2016-12-06,19:10:00,13.85
2016-12-06,19:20:00,13.84
2016-12-06,19:30:00,13.84
2016-12-06,19:40:00,13.83
2016-12-06,19:50:00,13.83
2016-12-06,20:00:00,13.82
2016-12-06,20:10:00,13.83
2016-12-06,20:20:00,13.82
2016-12-06,20:30:00,13.82
2016-12-06,20:40:00,13.81
2016-12-06,20:50:00,13.81
2016-12-06,21:00:00,13.81
2016-12-06,21:10:00,13.81
2016-12-06,21:20:00,13.81
2016-12-06,21:30:00,13.8
2016-12-06,21:40:00,13.8
2016-12-06,21:50:00,13.8
2016-12-06,22:00:00,13.81
2016-12-06,22:10:00,13.81
2016-12-06,22:20:00,13.79
2016-12-06,22:30:00,13.79
2016-12-06,22:40:00,13.79
2016-12-06,22:50:00,13.79
2016-12-06,23:00:00,13.79
2016-12-06,23:10:00,13.78
2016-12-06,23:20:00,13.76
2016-12-06,23:30:00,13.77
2016-12-06,23:40:00,13.77
2016-12-06,23:50:00,13.76
2016-12-07,00:00:00,13.76
2016-12-07,00:10:00,13.76
2016-12-07,00:20:00,13.75
2016-12-07,00:30:00,13.76
2016-12-07,00:40:00,13.74
2016-12-07,00:50:00,13.74
2016-12-07,01:00:00,13.75
2016-12-07,01:10:00,13.75
2016-12-07,01:20:00,13.73
2016-12-07,01:30:00,13.74
2016-12-07,01:40:00,13.74
2016-12-07,01:50:00,13.74
2016-12-07,02:00:00,13.73
2016-12-07,02:10:00,13.74
2016-12-07,02:20:00,13.73
2016-12-07,02:30:00,13.73
2016-12-07,02:40:00,13.72
2016-12-07,02:50:00,13.72
2016-12-07,03:00:00,13.72
2016-12-07,03:10:00,13.71
2016-12-07,03:20:00,13.73
2016-12-07,03:30:00,13.7
2016-12-07,03:40:00,13.69
2016-12-07,03:50:00,13.7
2016-12-07,04:00:00,13.7
2016-12-07,04:10:00,13.69
2016-12-07,04:20:00,13.66
2016-12-07,04:30:00,13.69
2016-12-07,04:40:00,13.69
2016-12-07,04:50:00,13.69
2016-12-07,05:00:00,13.7
2016-12-07,05:10:00,13.69
2016-12-07,05:20:00,13.67
2016-12-07,05:30:00,13.68
2016-12-07,05:40:00,13.68
2016-12-07,05:50:00,13.66
2016-12-07,06:00:00,13.67
2016-12-07,06:10:00,13.66
2016-12-07,06:20:00,13.67
2016-12-07,06:30:00,13.67
2016-12-07,06:40:00,13.66
2016-12-07,06:50:00,13.64
2016-12-07,07:00:00,13.66
2016-12-07,07:10:00,13.65
2016-12-07,07:20:00,13.64
2016-12-07,07:30:00,13.65
2016-12-07,07:40:00,13.64
2016-12-07,07:50:00,13.63
2016-12-07,08:00:00,13.62
2016-12-07,08:10:00,13.64
2016-12-07,08:20:00,13.63
2016-12-07,08:30:00,13.63
2016-12-07,08:40:00,13.63
2016-12-07,08:50:00,13.62
2016-12-07,09:00:00,13.61
2016-12-07,09:10:00,13.62
2016-12-07,09:20:00,13.62
2016-12-07,09:30:00,13.61
2016-12-07,09:40:00,13.61
2016-12-07,09:50:00,13.6
2016-12-07,10:00:00,13.6
2016-12-07,10:10:00,13.6
2016-12-07,10:20:00,13.6
2016-12-07,10:30:00,13.59
2016-12-07,10:40:00,13.6
2016-12-07,10:50:00,13.59
2016-12-07,11:00:00,13.59
2016-12-07,11:10:00,13.59
2016-12-07,11:20:00,13.59
2016-12-07,11:30:00,13.58
2016-12-07,11:40:00,13.6
2016-12-07,11:50:00,13.58
2016-12-07,12:00:00,13.59
2016-12-07,12:10:00,13.57
2016-12-07,12:20:00,13.58